TimeEDT,TemperatureF,Dew PointF,Humidity,Sea Level PressureIn,VisibilityMPH,Wind Direction,Wind SpeedMPH,Gust SpeedMPH,PrecipitationIn,Events,Conditions,WindDirDegrees,DateUTC
12:54 AM,46.0,44.1,93,30.18,10.0,WNW,3.5,-,N/A,,Clear,290,2012-10-08 04:54:00
1:54 AM,45.0,42.1,90,30.19,10.0,Calm,Calm,-,N/A,,Partly Cloudy,0,2012-10-08 05:54:00
2:54 AM,43.0,41.0,93,30.19,10.0,Calm,Calm,-,N/A,,Partly Cloudy,0,2012-10-08 06:54:00
3:54 AM,42.1,41.0,96,30.19,10.0,Calm,Calm,-,N/A,,Partly Cloudy,0,2012-10-08 07:54:00
4:54 AM,41.0,39.9,96,30.21,8.0,Calm,Calm,-,N/A,,Scattered Clouds,0,2012-10-08 08:54:00
5:54 AM,41.0,39.9,96,30.22,8.0,Calm,Calm,-,N/A,,Mostly Cloudy,0,2012-10-08 09:54:00
6:54 AM,42.1,39.9,92,30.23,10.0,NW,4.6,-,N/A,,Mostly Cloudy,310,2012-10-08 10:54:00
7:54 AM,44.1,39.9,85,30.27,10.0,West,3.5,-,N/A,,Mostly Cloudy,280,2012-10-08 11:54:00
8:54 AM,46.0,42.1,86,30.28,10.0,Calm,Calm,-,N/A,,Mostly Cloudy,0,2012-10-08 12:54:00
9:54 AM,48.0,39.9,74,30.29,10.0,North,4.6,-,N/A,,Overcast,10,2012-10-08 13:54:00
10:54 AM,50.0,39.9,68,30.29,10.0,NE,6.9,-,N/A,,Overcast,40,2012-10-08 14:54:00
11:54 AM,50.0,39.9,68,30.30,10.0,Calm,Calm,-,N/A,,Overcast,0,2012-10-08 15:54:00
12:54 PM,52.0,39.9,63,30.30,10.0,North,4.6,-,0.00,,Overcast,350,2012-10-08 16:54:00
1:54 PM,52.0,39.9,63,30.27,10.0,NE,4.6,-,N/A,,Mostly Cloudy,50,2012-10-08 17:54:00
2:54 PM,53.1,39.0,59,30.27,10.0,NNW,5.8,-,N/A,,Overcast,330,2012-10-08 18:54:00
3:54 PM,54.0,39.9,59,30.27,10.0,Variable,3.5,-,0.00,,Overcast,0,2012-10-08 19:54:00
4:54 PM,53.1,41.0,64,30.25,10.0,NNW,4.6,-,N/A,,Overcast,330,2012-10-08 20:54:00
5:54 PM,52.0,39.9,63,30.24,10.0,NNE,8.1,-,N/A,,Overcast,20,2012-10-08 21:54:00
6:54 PM,51.1,43.0,74,30.23,10.0,North,5.8,-,N/A,,Overcast,10,2012-10-08 22:54:00
7:54 PM,51.1,42.1,71,30.23,10.0,NNE,4.6,-,N/A,,Overcast,30,2012-10-08 23:54:00
8:54 PM,50.0,42.1,74,30.24,10.0,NNE,8.1,-,N/A,,Overcast,30,2012-10-09 00:54:00
9:54 PM,50.0,43.0,77,30.22,10.0,NE,9.2,-,N/A,,Overcast,40,2012-10-09 01:54:00
10:54 PM,50.0,42.1,74,30.22,10.0,NNE,5.8,-,N/A,,Overcast,20,2012-10-09 02:54:00
11:54 PM,50.0,42.1,74,30.21,10.0,North,5.8,-,N/A,,Overcast,350,2012-10-09 03:54:00